GW1630 Weather Reports


time (UTC)temp
C
wind
direction
speed
KPH
gust
KPH
rain 1hr
cm
rain 24hr
cm
rain mn
cm
humidity
%
barometer
mb
20260503013852 22 80 0.0 3.2 0.00 0.10 0.10 92 1013.7
20260503013352 22 0 1.6 3.2 0.00 0.10 0.10 92 1013.7
20260503013122 22 24 3.2 4.8 0.00 0.10 0.10 92 1013.8
20260503012340 22 61 3.2 4.8 0.05 0.10 0.10 92 1013.8
20260503011839 22 26 1.6 3.2 0.10 0.10 0.10 92 1013.8
20260503011339 22 0 0.0 3.2 0.10 0.10 0.10 91 1013.8
20260503010839 22 307 1.6 3.2 0.10 0.10 0.10 91 1013.6
20260503010339 22 56 1.6 4.8 0.10 0.10 0.10 91 1013.7
20260503005825 23 53 1.6 4.8 0.10 0.10 0.10 91 1013.7
20260503005325 23 359 3.2 6.4 0.10 0.10 0.10 91 1013.9
20260503004832 23 271 4.8 11.3 0.10 0.10 0.10 91 1013.7
20260503004825 23 319 4.8 8.0 0.10 0.10 0.10 91 1013.8
20260503003754 23 16 4.8 11.3 0.10 0.10 0.10 90 1013.6
20260503003604 23 292 6.4 11.3 0.10 0.10 0.10 89 1013.5
20260503002755 25 301 6.4 12.9 0.10 0.10 0.10 87 1013.3
20260503002255 25 291 6.4 14.5 0.05 0.05 0.05 82 1013.3
20260503001756 26 312 6.4 14.5 0.00 0.00 0.00 78 1013.1
20260503001256 26 257 4.8 11.3 0.00 0.00 0.00 84 1013.0
20260503000755 27 272 3.2 8.0 0.00 0.00 0.00 85 1012.7
20260503000254 27 234 3.2 11.3 0.00 0.00 0.00 85 1012.6
20260502235755 27 250 4.8 11.3 0.00 0.00 0.00 84 1012.6
20260502235253 27 225 4.8 14.5 0.00 0.00 0.00 84 1012.6
20260502234753 27 230 3.2 14.5 0.00 0.00 0.00 84 1012.6
20260502234254 27 272 3.2 11.3 0.00 0.00 0.00 84 1012.6
20260502233753 27 260 3.2 11.3 0.00 0.00 0.00 83 1012.5
20260502233253 27 237 3.2 9.7 0.00 0.00 0.00 82 1012.5
20260502232754 27 259 4.8 12.9 0.00 0.00 0.00 82 1012.5
20260502232603 27 215 4.8 12.9 0.00 0.00 0.00 81 1012.4
20260502232120 27 255 4.8 9.7 0.00 0.00 0.00 80 1012.5
20260502231250 27 225 6.4 11.3 0.00 0.00 0.00 81 1012.4
20260502230750 27 229 8.0 14.5 0.00 0.00 0.00 81 1012.3
20260502230250 27 222 8.0 14.5 0.00 0.00 0.00 80 1012.3
20260502225751 27 224 6.4 12.9 0.00 0.00 0.00 79 1012.2
20260502225250 27 230 8.0 14.5 0.00 0.00 0.00 78 1012.1
20260502224750 28 228 9.7 14.5 0.00 0.00 0.00 78 1012.0
20260502224250 28 223 8.0 14.5 0.00 0.00 0.00 77 1011.9
20260502224059 28 239 6.4 14.5 0.00 0.00 0.00 76 1011.7
20260502223250 28 232 4.8 8.0 0.00 0.00 0.00 76 1011.7
20260502222750 28 221 4.8 8.0 0.00 0.00 0.00 76 1011.7
20260502222248 28 226 6.4 11.3 0.00 0.00 0.00 74 1011.7
20260502221749 28 225 6.4 12.9 0.00 0.00 0.00 74 1011.7
20260502221249 28 254 8.0 12.9 0.00 0.00 0.00 73 1011.7
20260502220749 28 243 8.0 11.3 0.00 0.00 0.00 74 1011.6
20260502220249 28 248 8.0 12.9 0.00 0.00 0.00 74 1011.5
20260502215749 28 223 6.4 12.9 0.00 0.00 0.00 73 1011.5
20260502215249 28 223 6.4 14.5 0.00 0.00 0.00 74 1011.5
20260502214750 28 222 8.0 14.5 0.00 0.00 0.00 73 1011.5
20260502214250 28 220 6.4 16.1 0.00 0.00 0.00 74 1011.6
20260502213750 28 206 6.4 16.1 0.00 0.00 0.00 73 1011.7
20260502213249 29 223 6.4 12.9 0.00 0.00 0.00 71 1011.6
20260502212750 29 224 8.0 19.3 0.00 0.00 0.00 69 1011.6
20260502212246 29 228 8.0 19.3 0.00 0.00 0.00 70 1011.6
20260502211745 29 230 8.0 14.5 0.00 0.00 0.00 71 1011.6
20260502211246 29 241 8.0 24.1 0.00 0.00 0.00 71 1011.5
20260502210746 29 224 9.7 24.1 0.00 0.00 0.00 70 1011.4
20260502210554 29 221 9.7 19.3 0.00 0.00 0.00 68 1011.2
20260502210056 29 229 9.7 19.3 0.00 0.00 0.00 67 1011.1
20260502205554 30 229 9.7 19.3 0.00 0.00 0.00 67 1011.0
20260502205121 30 224 8.0 16.1 0.00 0.00 0.00 66 1011.0
20260502204247 30 224 9.7 17.7 0.00 0.00 0.00 63 1011.1
20260502203746 30 210 8.0 17.7 0.00 0.00 0.00 65 1011.2
20260502203246 30 224 6.4 20.9 0.00 0.00 0.00 62 1011.2
20260502203056 30 224 9.7 24.1 0.00 0.00 0.00 66 1011.1
20260502202245 30 225 9.7 24.1 0.00 0.00 0.00 65 1011.0
20260502201745 30 225 9.7 33.8 0.00 0.00 0.00 65 1010.9
20260502201245 30 224 9.7 33.8 0.00 0.00 0.00 65 1010.9
20260502200745 29 222 9.7 19.3 0.00 0.00 0.00 66 1011.0
20260502200246 30 227 9.7 19.3 0.00 0.00 0.00 67 1011.0
20260502200051 30 220 8.0 19.3 0.00 0.00 0.00 69 1011.0
20260502195245 30 223 8.0 19.3 0.00 0.00 0.00 65 1011.1
20260502194746 30 219 8.0 14.5 0.00 0.00 0.00 66 1011.2
20260502194245 30 223 9.7 20.9 0.00 0.00 0.00 64 1011.3
20260502193746 30 230 11.3 20.9 0.00 0.00 0.00 64 1011.3
20260502193245 30 221 11.3 19.3 0.00 0.00 0.00 63 1011.4
20260502192742 30 221 9.7 35.4 0.00 0.00 0.00 64 1011.4
20260502192241 30 235 9.7 35.4 0.00 0.00 0.00 64 1011.5
20260502191742 30 249 9.7 38.6 0.00 0.00 0.00 63 1011.5
20260502191416 30 231 11.3 32.2 0.00 0.00 0.00 61 1011.4
20260502191345 30 225 9.7 38.6 0.00 0.00 0.00 60 1011.4
20260502190242 30 222 11.3 30.6 0.00 0.00 0.00 59 1011.6
20260502185742 30 217 9.7 30.6 0.00 0.00 0.00 57 1011.6
20260502185242 30 233 9.7 30.6 0.00 0.00 0.00 57 1011.6
20260502184742 30 223 11.3 30.6 0.00 0.00 0.00 56 1011.7
20260502184242 31 201 9.7 29.0 0.00 0.00 0.00 54 1011.8
20260502183743 31 225 6.4 29.0 0.00 0.00 0.00 54 1011.9
20260502183242 31 212 6.4 17.7 0.00 0.00 0.00 55 1012.0
20260502182741 31 216 6.4 12.9 0.00 0.00 0.00 60 1012.1
20260502182236 31 223 6.4 14.5 0.00 0.00 0.00 59 1011.9
20260502181737 30 224 8.0 19.3 0.00 0.00 0.00 61 1011.8
20260502181237 30 219 9.7 22.5 0.00 0.00 0.00 60 1011.9
20260502180737 30 226 8.0 22.5 0.00 0.00 0.00 60 1011.9
20260502180238 30 223 8.0 22.5 0.00 0.00 0.00 58 1011.8
20260502170236 30 221 11.3 37.0 0.00 0.00 0.00 67 1012.1
20260502164236 29 216 9.7 20.9 0.00 0.00 0.00 72 1012.3
20260502163736 29 219 9.7 20.9 0.00 0.00 0.00 71 1012.3
20260502163236 29 223 11.3 37.0 0.00 0.00 0.00 71 1012.4
20260502162737 29 222 11.3 37.0 0.00 0.00 0.00 71 1012.3
20260502162236 29 238 9.7 17.7 0.00 0.00 0.00 73 1012.2
20260502162054 29 224 8.0 16.1 0.00 0.00 0.00 73 1012.2
20260502161233 29 223 8.0 16.1 0.00 0.00 0.00 73 1012.3
20260502160733 29 224 9.7 16.1 0.00 0.00 0.00 73 1012.2
20260502160233 29 223 9.7 25.7 0.00 0.00 0.00 75 1012.2
20260502152228 28 194 11.3 49.9 0.00 0.00 0.00 75 1012.4
20260502151729 28 219 11.3 49.9 0.00 0.00 0.00 74 1012.4
20260502151724 28 220 9.7 16.1 0.00 0.00 0.00 75 1012.4
20260502151718 28 223 9.7 40.2 0.00 0.00 0.00 76 1012.5
20260502150539 28 222 8.0 16.1 0.00 0.00 0.00 76 1012.5
20260502130724 27 236 6.4 11.3 0.00 0.00 0.00 79 1011.5
20260502130224 27 186 6.4 14.5 0.00 0.00 0.00 78 1011.5
20260502123724 25 162 0.0 3.2 0.00 0.00 0.00 88 1011.5
20260502123225 24 142 0.0 1.6 0.00 0.00 0.00 88 1011.5
20260502123054 24 0 0.0 1.6 0.00 0.00 0.00 90 1011.5
20260502122223 23 249 0.0 3.2 0.00 0.00 0.00 92 1011.6
20260502121723 23 60 0.0 3.2 0.00 0.00 0.00 94 1011.5
20260502121540 22 0 0.0 1.6 0.00 0.00 0.00 95 1011.5
20260502120725 22 153 0.0 1.6 0.00 0.00 0.00 96 1011.5
20260502120226 21 80 1.6 3.2 0.00 0.00 0.00 96 1011.4
20260502115710 21 130 1.6 3.2 0.00 0.00 0.00 97 1011.4
20260502115210 21 174 1.6 3.2 0.00 0.00 0.00 97 1011.4
20260502114715 21 124 3.2 4.8 0.00 0.00 0.00 98 1011.4
20260502114709 21 128 1.6 3.2 0.00 0.00 0.00 97 1011.4
20260502113710 21 148 1.6 4.8 0.00 0.00 0.00 98 1011.3
20260502113209 20 96 1.6 4.8 0.00 0.00 0.00 98 1011.3
20260502112710 20 42 3.2 4.8 0.00 0.00 0.00 98 1011.3
20260502112157 20 78 1.6 4.8 0.00 0.00 0.00 98 1011.3
20260502111654 20 51 1.6 3.2 0.00 0.00 0.00 98 1011.2
20260502111153 20 72 1.6 3.2 0.00 0.00 0.00 97 1011.3
20260502110655 20 40 1.6 3.2 0.00 0.00 0.00 97 1011.3
20260502110155 20 65 1.6 3.2 0.00 0.00 0.00 98 1011.3
20260502105655 20 73 1.6 3.2 0.00 0.00 0.00 97 1011.3
20260502105154 20 40 1.6 3.2 0.00 0.00 0.00 97 1011.3
20260502104655 20 63 1.6 3.2 0.00 0.00 0.00 97 1011.3
20260502104155 20 65 1.6 4.8 0.00 0.00 0.00 97 1011.3
20260502103655 20 81 3.2 4.8 0.00 0.00 0.00 97 1011.2
20260502103141 20 49 1.6 3.2 0.00 0.00 0.00 97 1011.2
20260502102640 20 61 3.2 4.8 0.00 0.00 0.00 97 1011.2
20260502102143 20 51 3.2 4.8 0.00 0.00 0.00 97 1011.2
20260502101640 20 78 3.2 4.8 0.00 0.00 0.00 97 1011.3
20260502101139 20 66 1.6 3.2 0.00 0.00 0.00 97 1011.3
20260502100640 20 105 1.6 3.2 0.00 0.00 0.00 97 1011.2
20260502100140 20 134 1.6 3.2 0.00 0.00 0.00 97 1011.3
20260502091112 20 104 1.6 3.2 0.00 0.00 0.00 96 1011.6
20260502090850 20 56 1.6 3.2 0.00 0.00 0.00 96 1011.7
20260502090113 20 58 0.0 3.2 0.00 0.00 0.00 96 1011.6
20260502071515 21 56 3.2 4.8 0.00 0.00 0.00 96 1011.4
20260502071015 21 106 3.2 4.8 0.00 0.00 0.00 96 1011.6
20260502070515 21 145 1.6 3.2 0.00 0.00 0.00 96 1011.6
20260502070015 21 94 3.2 4.8 0.00 0.00 0.00 96 1011.5
20260502065751 21 126 1.6 4.8 0.00 0.00 0.00 96 1011.6
20260502065015 21 57 1.6 3.2 0.00 0.00 0.00 96 1011.6
20260502064515 21 104 3.2 4.8 0.00 0.00 0.00 96 1011.6
20260502064249 21 49 3.2 4.8 0.00 0.00 0.00 96 1011.6
20260502063512 22 93 1.6 3.2 0.00 0.00 0.00 96 1011.7
20260502063012 22 169 3.2 6.4 0.00 0.00 0.00 96 1011.6
20260502062752 22 116 3.2 8.0 0.00 0.00 0.00 95 1011.7
20260502062002 22 128 3.2 8.0 0.00 0.00 0.00 95 1011.6
20260502061459 22 117 1.6 3.2 0.00 0.00 0.00 96 1011.7
20260502060959 22 141 0.0 1.6 0.00 0.00 0.00 96 1011.7
20260502060500 22 163 0.0 3.2 0.00 0.00 0.00 96 1011.8
20260502055959 22 197 1.6 3.2 0.00 0.00 0.00 96 1011.8
20260502055737 22 210 0.0 3.2 0.00 0.00 0.00 96 1011.9
20260502054959 23 0 0.0 1.6 0.00 0.00 0.00 96 1011.9
20260502054500 22 175 0.0 1.6 0.00 0.00 0.00 96 1011.9
20260502053959 22 0 0.0 3.2 0.00 0.00 0.00 95 1011.9
20260502053445 22 183 1.6 3.2 0.00 0.00 0.00 95 1012.0
20260502052945 22 232 1.6 3.2 0.00 0.00 0.00 95 1012.0
20260502052446 22 217 1.6 3.2 0.00 0.00 0.00 95 1012.0
20260502051948 22 221 1.6 3.2 0.00 0.00 0.00 95 1012.0
20260502051448 22 218 3.2 3.2 0.00 0.00 0.00 94 1011.9
20260502051226 22 211 1.6 3.2 0.00 0.00 0.00 94 1011.8
20260502050448 23 202 1.6 3.2 0.00 0.00 0.00 94 1011.7
20260502045949 23 161 1.6 3.2 0.00 0.00 0.00 93 1011.6
20260502045448 23 200 0.0 3.2 0.00 0.00 0.00 93 1011.6
20260502044948 23 0 0.0 1.6 0.00 0.00 0.00 92 1011.6
20260502044730 23 39 0.0 1.6 0.00 0.00 0.00 92 1011.5
20260502044224 23 57 0.0 0.0 0.00 0.00 0.00 92 1011.6
20260502043448 23 0 0.0 1.6 0.00 0.00 0.00 92 1011.6
20260502042949 23 0 0.0 1.6 0.00 0.00 0.00 91 1011.7
20260502042450 23 0 0.0 1.6 0.00 0.00 0.00 91 1011.8
20260502041931 23 0 0.0 1.6 0.00 0.00 0.00 90 1011.8
20260502041432 23 220 1.6 3.2 0.00 0.00 0.00 90 1011.9
20260502040931 23 221 1.6 3.2 0.00 0.00 0.00 89 1012.0
20260502040712 23 206 1.6 3.2 0.00 0.00 0.00 88 1012.0
20260502035932 23 234 1.6 3.2 0.00 0.00 0.00 88 1012.1
20260502035432 23 222 1.6 3.2 0.00 0.00 0.00 88 1012.1
20260502034931 23 245 0.0 1.6 0.00 0.00 0.00 88 1012.1
20260502034415 23 222 1.6 4.8 0.00 0.00 0.00 87 1012.1
20260502033916 23 236 3.2 6.4 0.00 0.00 0.00 87 1012.2
20260502033416 23 238 3.2 6.4 0.00 0.00 0.00 87 1012.2
20260502032918 23 231 3.2 3.2 0.00 0.00 0.00 88 1012.2
20260502032419 23 223 3.2 3.2 0.00 0.00 0.00 88 1012.3
20260502032158 23 226 1.6 3.2 0.00 0.00 0.00 88 1012.3
20260502031655 23 227 1.6 3.2 0.00 0.00 0.00 87 1012.3
20260502030919 23 217 3.2 4.8 0.00 0.00 0.00 87 1012.3
20260502030658 23 231 1.6 4.8 0.00 0.00 0.00 87 1012.4
20260502025919 23 216 1.6 3.2 0.00 0.00 0.00 87 1012.3
20260502025700 23 218 1.6 3.2 0.00 0.00 0.00 87 1012.3
20260502025143 23 233 3.2 3.2 0.00 0.00 0.00 87 1012.3
20260502024405 23 230 1.6 3.2 0.00 0.00 0.00 87 1012.3
20260502023905 23 237 1.6 3.2 0.00 0.00 0.00 86 1012.3
20260502023348 23 226 1.6 3.2 0.00 0.00 0.00 86 1012.2
20260502023110 23 250 1.6 3.2 0.00 0.00 0.00 86 1012.2
20260502022333 23 224 1.6 3.2 0.00 0.00 0.00 86 1012.2
20260502021854 24 349 1.6 4.8 0.00 0.00 0.00 85 1012.1
20260502021846 24 234 1.6 4.8 0.00 0.00 0.00 85 1012.2
20260502020833 24 215 3.2 6.4 0.00 0.00 0.00 84 1012.0
20260502020333 24 238 3.2 6.4 0.00 0.00 0.00 84 1012.0
20260502015817 24 225 3.2 6.4 0.00 0.00 0.00 84 1011.9
20260502015318 24 212 3.2 6.4 0.00 0.00 0.00 84 1011.8
20260502014818 24 232 3.2 6.4 0.00 0.00 0.00 84 1011.8
20260502014318 24 227 1.6 3.2 0.00 0.00 0.00 83 1011.8